{"data":{"norad_id":59926,"epoch":"2026-09-20T20:17:15.844128Z","epoch_age_seconds":144660,"freshness":"FRESH","line1":"1 59926U 24106E   26263.84532227 -.00000245  00000+0  61795-6 0  9991","line2":"2 59926  43.0033 310.0163 0001027 275.0007  85.0728 15.27576673130420","mean_motion":15.27576673,"eccentricity":0.0001027,"inclination_deg":43.0033,"raan_deg":310.0163,"arg_perigee_deg":275.0007,"mean_anomaly_deg":85.0728,"bstar":6.1795e-7,"rev_number":13042,"period_min":94.266954022805,"perigee_km":482.35441345743,"apogee_km":483.7637031278,"semimajor_km":6861.1960582926,"source":"CELESTRAK","updated_at":"2026-09-22T09:00:49.111427Z"}}